Startpagina
METAR-TAF:

METAR-TAF

Vliegvelden :

Productieplatform

L9-ff-1, Nederland

breedte: 53-36-52N, lengte: 4-57-37E, hoogte: 30 m

Actueel weer

Dit bericht is 21 minuten geleden gemaakt, om 02:25 UTC
Wind 25 kt uit het zuiden
Temperatuur 11°C
Vochtigheid 94%
Druk 1003 hPa
Zicht 10 km of meer
Weinig wolken op 1100 ft
Verspreide wolken op 1600 ft
Gebroken wolken op 4600 ft

METAR: EHMG 250225Z AUTO 18025KT 9999 FEW011 SCT016 BKN046 11/10 Q1003 W///H///

Tijdstip: 04:46 (02:46 UTC)


TAF: ontbreekt

Waarnemingen en weersverwachtingen van meer dan 4000 vliegvelden (METAR en TAF).

De beschikbare stations zijn de gele en rode punten op de kaart.

Ga met uw muis naar het station om de naam te zien.

Klik dan om waarnemingen en weersverwachtingen te zien.

kaart wijzigen: klik op de groene knoppen met een zwart kruis om in te zoomen, op de groene knop met een streepje om uit te zoomen of op de groene pijlen voor aangrenzende kaarten.


METAR-TAF: